Location: Newark
(41.8083°N, 72.2500°W)
Time: 20:33:58
(UTC+00:00)

Courier 1B - Pass Details

Date: 06 December 2021
Orbit: 962 x 1209 km, 28.3° (Epoch: 19 January)

Event Time Altitude Azimuth Distance (km) Brightness Sun altitude
Rises 01:35:28 0° 255° (WSW) 3,886 11.2 -47.1°
Enters shadow 01:39:36 - 233° (SW) 2,931 10.3 -47.8°
Reaches altitude 10° 01:40:00 10° 230° (SW) 2,866 - -47.9°
Maximum altitude 01:43:01 13° 204° (SSW) 2,595 - -48.5°
Drops below altitude 10° 01:45:58 10° 178° (S) 2,787 - -49.0°
Sets 01:50:15 0° 152° (SSE) 3,689 - -49.8°
